This demonstration page uses our WeatherBlox Daily Observations layout. Learn more.

Left ArrowRight Arrow

36.19886, -115.1175

Hourly Observations for April 29, 2021

Temp ( °F °C ) Dew Point ( °F °C ) Humidity (%) Winds ( mph kmh ) Pressure ( in mb ) Visibility ( mi km ) Precip ( " mm )
12:53 am 00:53 Clear 69 20.6 22 -5.6 17 17 NW 8 13 30.10 1019 10 16 N/A
1:53 am 01:53 Clear 66 18.9 25 -3.9 21 21 NW 7 11 30.11 1020 10 16 N/A
2:53 am 02:53 Clear 68 20 18 -7.8 15 15 NNW 12 19 30.10 1019 10 16 N/A
3:53 am 03:53 Clear 69 20.6 20 -6.7 15 15 NW 12 19 30.12 1020 10 16 N/A
4:53 am 04:53 Clear 68 20 23 -5 18 18 NW 10 17 30.13 1020 10 16 N/A
5:53 am 05:53 Sunny 68 20 23 -5 18 18 NW 9 15 30.15 1021 10 16 N/A
6:53 am 06:53 Sunny 69 20.6 24 -4.4 18 18 NNE 7 11 30.18 1022 10 16 N/A
7:53 am 07:53 Sunny 73 22.8 24 -4.4 16 16 NNW 12 19 30.19 1022 10 16 N/A
8:53 am 08:53 Sunny 78 25.6 23 -5 13 13 N 7 11 30.19 1022 10 16 N/A
9:53 am 09:53 Sunny 80 26.7 23 -5 12 12 E 6 9 30.20 1023 10 16 N/A
10:53 am 10:53 Sunny 82 27.8 23 -5 11 11 VRB 5 7 30.20 1023 10 16 N/A
11:53 am 11:53 Sunny 83 28.3 22 -5.6 10 10 WSW 6 9 30.18 1022 10 16 N/A
12:53 pm 12:53 Sunny 85 29.4 21 -6.1 9 9 E 3 6 30.17 1022 10 16 N/A
1:53 pm 13:53 Sunny 86 30 21 -6.1 9 9 S 3 6 30.15 1021 10 16 N/A
2:53 pm 14:53 Sunny 88 31.1 22 -5.6 9 9 SE 8 13 30.12 1020 10 16 N/A
3:53 pm 15:53 Sunny 89 31.7 22 -5.6 8 8 N N/A 30.09 1019 10 16 N/A
4:53 pm 16:53 Sunny 89 31.7 21 -6.1 8 8 S 6 9 30.07 1018 10 16 N/A
5:53 pm 17:53 Sunny 89 31.7 21 -6.1 8 8 SSE 5 7 30.07 1018 10 16 N/A
6:53 pm 18:53 Sunny 88 31.1 20 -6.7 8 8 E 7 11 30.06 1018 10 16 N/A
7:53 pm 19:53 Clear 86 30 21 -6.1 9 9 N N/A 30.07 1018 10 16 N/A
8:53 pm 20:53 Clear 85 29.4 24 -4.4 11 11 WSW 3 6 30.08 1019 10 16 N/A
9:53 pm 21:53 Clear 77 25 27 -2.8 16 16 W 6 9 30.09 1019 10 16 N/A
10:53 pm 22:53 Clear 76 24.4 26 -3.3 16 16 WNW 8 13 30.09 1019 10 16 N/A
11:53 pm 23:53 Clear 73 22.8 25 -3.9 17 17 NW 7 11 30.08 1019 10 16 N/A

Powered by AerisWeather